Content
SEND FEEDBACK

Daily
Averages
Monthly
Summary
United States of America

SOLON SPRINGS, WISCONSIN


Home > North America > United States > Wisconsin
Elevation: 322 meters     Latitude: 46 20N     Longitude: 091 49W

WEATHER
 
SELECT A DAY
Number of Records: 454,638;   Date Range: 7/1/96 - 11/27/14
 
SHARE

PRINT THIS DATA

[ ← Previous Day ]
WEATHER ALMANAC - 3 JANUARY, 2013
[ Next Day → ]
[ °F ]   °C
Weather ElementAverageHighLow
Temperature-7.7 °C-5.1 °C (3:55 am)-10.3 °C (8:15 am)
Dewpoint-12.2 °C-7.3 °C (3:55 am)-15.4 °C (4:55 pm)
Humidity71.6 %89 % (12:35 am)48 % (3:55 pm)
Barometer1017.9 hPa1022 hPa (9:15 am)1011.9 hPa (11:35 pm)
Wind Speed20.1 km/h37 km/h (11:15 pm)
Wind Gust48.1 km/h (11:15 pm)
Weather ElementAverage
Visibility14.8 km
Wind DirectionWSW (262.4 °)

Weather ElementTotal
Precipitation---
Heating Degree Days26.1 (Base 18.3)
Averaged from 68 records on 3 January, 2013
WEATHER CONDITIONS BREAKOUT
WIND DIRECTION BREAKOUT
WEATHER BY HOUR - 3 JANUARY, 2013
[ °F ]   °C
Local TimeTemperatureDewpointHumidityBarometerVisibilityWind DirectionWind SpeedGust SpeedPrecipitationEventsConditions
12:35 AM-7.5 °C-9 °C89 %1016.9 hPa6.4 kmSW (230°)13 km/hOvercast
12:55 AM-7.3 °C-9 °C88 %1016.9 hPa6.4 kmSW (230°)13 km/hOvercast
1:15 AM-7.2 °C-8.8 °C89 %1016.6 hPa6.4 kmSW (230°)13 km/hOvercast
1:35 AM-7.1 °C-8.7 °C89 %1016.9 hPa6.4 kmSW (220°)13 km/hSnowLight Snow
1:55 AM-7 °C-8.6 °C89 %1016.9 hPa8 kmSW (230°)11.1 km/hOvercast
2:15 AM-6.8 °C-8.5 °C88 %1017.3 hPa8 kmSW (230°)9.3 km/hOvercast
2:35 AM-6.7 °C-8.5 °C87 %1017.3 hPa8 kmSW (230°)9.3 km/hOvercast
2:55 AM-6.6 °C-8.3 °C88 %1017.6 hPa8 kmSW (230°)9.3 km/hOvercast
3:15 AM-6.5 °C-8.2 °C88 %1017.6 hPa8 kmWSW (240°)7.4 km/hOvercast
3:35 AM-6.1 °C-8 °C87 %1017.9 hPa8 kmWNW (290°)11.1 km/hOvercast
3:55 AM-5.1 °C-7.3 °C85 %1017.9 hPa16.1 kmNNW (330°)14.8 km/hOvercast
4:15 AM-5.2 °C-7.8 °C82 %1018.3 hPa16.1 kmNNW (340°)20.4 km/hOvercast
4:35 AM-5.5 °C-8.5 °C80 %1018.6 hPa16.1 kmNNW (340°)18.5 km/hOvercast
4:55 AM-5.7 °C-8.5 °C81 %1019 hPa16.1 kmNW (310°)24.1 km/h31.5 km/hOvercast
5:15 AM-6 °C-9 °C80 %1019.3 hPa16.1 kmNW (320°)24.1 km/hOvercast
5:35 AM-6 °C-9.1 °C79 %1019.6 hPa16.1 kmNNW (330°)18.5 km/h25.9 km/hOvercast
5:55 AM-6.3 °C-9.5 °C78 %1019.6 hPa16.1 kmWNW (300°)14.8 km/hSnowLight Snow
6:15 AM-6.8 °C-10 °C78 %1020 hPa16.1 kmNW (310°)22.2 km/hOvercast
6:35 AM-7.3 °C-10.9 °C76 %1020.3 hPa16.1 kmNNW (330°)27.8 km/hOvercast
6:55 AM-8.3 °C-12 °C75 %1020.7 hPa16.1 kmNNW (340°)18.5 km/hOvercast
7:35 AM-9.8 °C-13.3 °C76 %1021.3 hPa16.1 kmNW (320°)14.8 km/hMostly Cloudy
7:55 AM-9.7 °C-13.2 °C76 %1021 hPa16.1 kmNW (320°)13 km/hOvercast
8:15 AM-10.3 °C-13.4 °C78 %1021.3 hPa16.1 kmNW (320°)11.1 km/hOvercast
8:35 AM-9.8 °C-13 °C78 %1021.3 hPa16.1 kmNW (310°)7.4 km/hOvercast
8:55 AM-9.6 °C-13.1 °C76 %1021.7 hPa16.1 kmWNW (290°)13 km/hSnowLight Snow
9:15 AM-9.9 °C-13.6 °C75 %1022 hPa16.1 kmNW (310°)14.8 km/hOvercast
9:35 AM-9.3 °C-13.5 °C72 %1022 hPa16.1 kmWNW (290°)13 km/hScattered Clouds
9:55 AM-9.2 °C-13.2 °C73 %1022 hPa16.1 kmWest (260°)14.8 km/hScattered Clouds
10:15 AM-9 °C-13.6 °C70 %1022 hPa16.1 kmWest (280°)13 km/hClear
10:35 AM-8.8 °C-13.9 °C67 %1022 hPa16.1 kmWest (270°)13 km/hClear
10:55 AM-8.4 °C-13.9 °C65 %1021.7 hPa16.1 kmWNW (290°)14.8 km/hClear
11:15 AM-8 °C-13.6 °C65 %1021.3 hPa16.1 kmWNW (290°)16.7 km/hClear
11:35 AM-7.5 °C-13.6 °C62 %1021.3 hPa16.1 kmWest (270°)13 km/hClear
11:55 AM-7.2 °C-13.4 °C62 %1021 hPa16.1 kmWSW (240°)16.7 km/hClear
12:15 PM-7 °C-13.9 °C59 %1020.7 hPa16.1 kmWSW (250°)18.5 km/h25.9 km/hClear
12:35 PM-6.6 °C-13.7 °C58 %1020.3 hPa16.1 kmWSW (250°)18.5 km/hClear
12:55 PM-6.5 °C-13.5 °C58 %1020 hPa16.1 kmWSW (250°)20.4 km/hClear
1:15 PM-6.2 °C-13.6 °C56 %1019.6 hPa16.1 kmWest (260°)20.4 km/h25.9 km/hClear
1:35 PM-6 °C-13.4 °C57 %1019.3 hPa16.1 kmWSW (250°)18.5 km/hClear
1:55 PM-5.9 °C-13.5 °C56 %1019.3 hPa16.1 kmWSW (240°)20.4 km/h27.8 km/hClear
2:15 PM-5.7 °C-13.5 °C55 %1019 hPa16.1 kmWSW (250°)22.2 km/h31.5 km/hClear
2:35 PM-5.6 °C-13.4 °C55 %1018.6 hPa16.1 kmWSW (240°)22.2 km/h27.8 km/hClear
2:55 PM-5.6 °C-13.9 °C53 %1018.3 hPa16.1 kmWSW (240°)25.9 km/h33.3 km/hClear
3:15 PM-5.8 °C-14.4 °C51 %1018.3 hPa16.1 kmWSW (240°)25.9 km/h31.5 km/hClear
3:55 PM-5.7 °C-15.2 °C48 %1018.6 hPa16.1 kmWSW (240°)24.1 km/h29.6 km/hClear
4:15 PM-6 °C-15.1 °C49 %1018.3 hPa16.1 kmWSW (240°)24.1 km/h35.2 km/hClear
4:35 PM-6.2 °C-15.1 °C50 %1018.3 hPa16.1 kmWSW (240°)25.9 km/h35.2 km/hClear
4:55 PM-6.5 °C-15.4 °C50 %1018.3 hPa16.1 kmWSW (240°)25.9 km/h31.5 km/hClear
5:15 PM-6.9 °C-15.2 °C52 %1017.9 hPa16.1 kmWSW (240°)24.1 km/hClear
5:35 PM-7.6 °C-15.3 °C55 %1017.3 hPa16.1 kmSW (230°)24.1 km/h31.5 km/hClear
6:15 PM-8.1 °C-14.2 °C62 %1017.3 hPa16.1 kmWSW (250°)31.5 km/h42.6 km/hClear
6:35 PM-8.3 °C-14.2 °C63 %1016.9 hPa16.1 kmWSW (250°)20.4 km/h33.3 km/hClear
6:55 PM-8.5 °C-14.2 °C64 %1016.6 hPa16.1 kmWSW (240°)27.8 km/h40.7 km/hClear
7:15 PM-8.7 °C-14.1 °C66 %1016.6 hPa16.1 kmWSW (240°)25.9 km/h31.5 km/hClear
7:35 PM-9 °C-14 °C68 %1016.3 hPa16.1 kmSW (230°)25.9 km/h38.9 km/hClear
7:55 PM-9.3 °C-14 °C69 %1016.3 hPa16.1 kmSW (230°)22.2 km/h33.3 km/hClear
8:15 PM-9.6 °C-14 °C71 %1015.6 hPa16.1 kmSW (230°)24.1 km/h35.2 km/hClear
8:35 PM-9.8 °C-13.7 °C74 %1015.2 hPa16.1 kmSW (230°)24.1 km/hClear
8:55 PM-9.8 °C-13.5 °C75 %1014.6 hPa16.1 kmSW (230°)24.1 km/h37 km/hClear
9:15 PM-10 °C-13.2 °C78 %1014.2 hPa16.1 kmSW (230°)27.8 km/h38.9 km/hClear
9:35 PM-10 °C-13 °C79 %1013.5 hPa16.1 kmSW (230°)31.5 km/h37 km/hClear
9:55 PM-9.7 °C-12.6 °C80 %1013.2 hPa16.1 kmWSW (240°)31.5 km/h46.3 km/hClear
10:15 PM-9.5 °C-12.3 °C80 %1012.9 hPa16.1 kmSW (230°)35.2 km/h44.4 km/hClear
10:35 PM-9.5 °C-12.2 °C81 %1012.9 hPa16.1 kmWSW (240°)24.1 km/h44.4 km/hClear
10:55 PM-9.5 °C-12.1 °C82 %1012.9 hPa16.1 kmWSW (240°)25.9 km/h44.4 km/hClear
11:15 PM-9.5 °C-12.1 °C82 %1012.2 hPa16.1 kmWSW (240°)37 km/h48.1 km/hClear
11:35 PM-9.5 °C-12.1 °C82 %1011.9 hPa16.1 kmWSW (240°)37 km/h44.4 km/hClear
11:55 PM-9.5 °C-12.2 °C81 %1012.9 hPa16.1 kmWSW (250°)22.2 km/h37 km/hClear
Hourly data recorded from KSUW, located 0 kilometers away from Solon Springs, Wisconsin







STORIES FROM OUR PARTNERS